GEFSSGP_prec_meanprecacc_258.txt.gz
Total_Precipitation_Accumulation
0.09 0.23 0.48 0.72 1.06 1.43 1.30 0.82 0.56 0.53 0.60 0.56 0.62 0.64 0.65 0.69 1.00 1.68 1.27 0.93 0.86 0.87 0.83 0.92 1.11 1.08 1.13 1.15 1.19 1.33 1.33 1.33 1.34 1.31 1.28 1.35 1.38 1.36 1.33 1.33 1.44 1.50 1.54 1.63 1.62 1.47 1.32 1.20 1.15
0.12 0.29 0.50 0.78 1.31 1.70 1.37 0.71 0.50 0.55 0.57 0.50 0.53 0.63 0.73 0.59 0.53 0.77 0.93 0.81 0.62 0.62 0.65 0.70 0.94 1.00 1.00 1.04 1.09 1.21 1.22 1.19 1.20 1.22 1.25 1.27 1.32 1.38 1.41 1.42 1.48 1.46 1.47 1.65 1.51 1.32 1.12 1.03 1.05
0.17 0.29 0.47 0.82 1.03 1.21 0.97 0.51 0.42 0.39 0.51 0.57 0.58 0.56 0.68 0.61 0.54 0.63 0.73 0.62 0.46 0.45 0.56 0.72 0.86 0.98 1.00 0.97 1.02 1.12 1.08 1.10 1.12 1.11 1.15 1.21 1.27 1.38 1.43 1.40 1.36 1.27 1.35 1.52 1.38 1.16 0.99 0.90 0.94
0.26 0.36 0.44 0.63 0.60 0.59 0.50 0.37 0.33 0.32 0.45 0.53 0.63 0.69 0.68 0.62 0.62 0.64 0.55 0.45 0.33 0.38 0.51 0.71 0.81 0.79 0.80 0.82 0.94 1.03 1.06 1.08 1.05 1.01 1.08 1.18 1.23 1.27 1.27 1.21 1.14 1.13 1.19 1.24 1.21 1.03 0.94 0.92 0.99
0.25 0.33 0.55 0.55 0.47 0.48 0.44 0.34 0.32 0.30 0.42 0.55 0.56 0.75 0.90 0.77 0.58 0.49 0.41 0.40 0.34 0.41 0.48 0.61 0.77 0.74 0.77 0.81 0.85 0.91 1.03 1.02 0.96 0.97 1.04 1.16 1.17 1.23 1.21 1.03 0.94 1.02 1.11 1.11 1.01 0.96 0.92 0.92 0.98
0.21 0.32 0.48 0.43 0.39 0.37 0.34 0.28 0.31 0.34 0.43 0.64 0.57 0.73 1.13 0.96 0.63 0.51 0.40 0.39 0.39 0.41 0.44 0.53 0.67 0.72 0.76 0.76 0.78 0.84 0.87 0.91 0.96 1.00 1.05 1.03 1.10 1.14 1.06 0.94 0.92 0.93 1.02 1.02 0.91 0.97 0.94 0.89 0.94
0.16 0.25 0.30 0.30 0.28 0.31 0.28 0.28 0.30 0.30 0.48 0.76 0.61 0.81 1.29 1.27 0.80 0.60 0.57 0.49 0.48 0.45 0.47 0.52 0.61 0.69 0.74 0.79 0.80 0.87 0.93 0.90 0.95 1.01 1.04 1.07 1.05 0.95 0.88 0.94 0.96 0.90 0.92 0.93 0.87 0.85 0.82 0.80 0.84
0.08 0.12 0.17 0.21 0.22 0.23 0.18 0.20 0.23 0.38 0.51 0.64 0.53 0.79 1.39 1.32 0.86 0.76 0.82 0.74 0.81 0.81 0.72 0.55 0.51 0.62 0.69 0.69 0.83 0.92 0.92 0.91 0.94 1.00 1.08 1.07 0.96 0.86 0.85 0.89 0.97 0.96 0.92 0.88 0.83 0.77 0.74 0.79 0.84
0.07 0.14 0.18 0.16 0.16 0.15 0.14 0.15 0.19 0.33 0.49 0.66 0.69 0.76 1.01 0.90 0.87 0.96 1.09 1.17 1.22 1.31 1.20 0.80 0.64 0.69 0.78 0.69 0.71 0.92 1.00 0.98 1.07 1.19 1.20 1.27 1.35 1.18 1.24 1.15 1.21 1.15 1.07 1.05 1.04 0.99 0.92 0.82 0.77
0.06 0.13 0.12 0.08 0.09 0.12 0.12 0.15 0.23 0.37 0.64 0.92 0.94 0.94 1.11 1.03 0.88 0.95 1.06 1.25 1.36 1.50 1.45 1.10 0.98 0.81 0.74 0.65 0.82 1.11 1.12 1.23 1.35 1.46 1.38 1.65 1.87 1.73 1.34 1.49 1.76 1.70 1.65 1.53 1.50 1.44 1.19 0.98 0.95
0.04 0.05 0.05 0.06 0.06 0.09 0.11 0.14 0.21 0.41 0.80 1.24 1.49 1.51 1.37 1.24 1.18 1.16 1.15 1.34 1.57 1.63 1.54 1.32 1.23 1.11 0.92 1.02 1.00 1.20 1.48 1.68 1.56 1.42 1.48 1.85 1.75 1.48 1.47 1.64 1.83 2.01 1.91 1.83 1.91 1.97 1.69 1.62 1.89
0.03 0.02 0.02 0.04 0.05 0.06 0.10 0.14 0.23 0.41 0.77 1.04 1.26 1.55 1.68 1.55 1.60 1.58 1.55 1.79 2.01 1.91 1.80 1.62 1.42 1.28 1.24 1.23 1.20 1.32 1.43 1.61 1.64 1.70 1.63 1.85 2.15 2.06 2.05 2.21 2.17 2.26 2.40 2.71 2.55 2.58 2.35 2.19 2.11
0.03 0.03 0.03 0.04 0.06 0.07 0.10 0.19 0.31 0.48 0.60 0.78 0.94 1.11 1.38 1.74 2.07 2.19 2.30 2.66 2.55 2.39 2.30 2.10 1.76 1.72 1.68 1.76 1.83 1.59 1.64 1.72 1.94 2.10 2.06 2.06 2.34 2.37 2.41 2.46 2.47 2.30 2.39 2.57 2.84 2.70 2.74 2.76 2.52
0.03 0.04 0.05 0.06 0.07 0.09 0.15 0.29 0.35 0.54 0.60 0.70 0.90 1.10 1.64 2.23 2.41 2.69 3.10 3.36 3.25 3.03 3.06 2.85 2.49 2.45 2.40 2.25 2.21 2.12 1.93 2.08 2.14 2.26 2.24 2.26 2.52 2.70 2.66 2.51 2.52 2.38 2.36 2.47 2.70 2.75 3.11 3.08 2.98
0.03 0.06 0.09 0.09 0.10 0.14 0.21 0.47 0.53 0.63 0.68 0.80 1.14 1.33 1.78 2.13 2.41 2.56 3.03 3.36 3.34 3.29 3.47 3.47 3.31 3.30 3.22 2.99 2.70 2.47 2.36 2.30 2.51 2.60 2.51 2.57 2.63 2.82 2.78 2.69 2.50 2.45 2.49 2.69 2.78 2.84 3.11 3.13 3.04
0.07 0.14 0.24 0.18 0.16 0.18 0.29 0.77 0.68 0.69 0.89 1.15 1.37 1.51 1.75 1.91 2.28 2.43 2.80 3.29 3.53 3.56 3.78 4.00 3.94 3.95 3.79 3.59 3.31 3.01 2.78 2.74 2.73 2.69 2.68 2.60 2.74 2.80 2.91 2.71 2.45 2.52 2.48 2.65 2.96 3.07 3.26 3.45 3.44
0.12 0.19 0.31 0.31 0.23 0.20 0.38 0.84 0.85 0.91 1.04 1.16 1.28 1.53 1.70 1.69 2.04 2.47 2.79 3.36 3.78 3.93 4.31 4.70 4.77 4.69 4.36 3.99 3.79 3.65 3.41 3.18 2.96 2.92 2.82 2.71 2.71 2.67 2.84 2.67 2.57 2.61 2.78 2.81 2.64 3.22 3.55 3.63 3.61
0.15 0.13 0.20 0.27 0.25 0.26 0.44 0.63 0.76 0.96 1.12 1.23 1.24 1.38 1.42 1.55 2.01 2.56 2.91 3.26 3.92 4.44 5.06 5.15 5.16 5.40 5.12 4.79 4.56 4.33 3.89 3.49 3.18 3.05 2.93 2.71 2.64 2.58 2.84 2.58 2.57 2.71 2.97 3.05 3.15 3.57 3.65 3.49 3.65
0.11 0.16 0.25 0.30 0.26 0.41 0.59 0.75 0.87 0.99 1.07 1.25 1.35 1.29 1.33 1.62 2.04 2.49 2.89 3.30 3.71 4.29 4.89 5.53 5.69 5.54 5.31 5.00 4.53 4.16 3.74 3.48 3.18 2.92 2.72 2.66 2.63 2.71 3.12 2.77 3.02 2.93 2.98 3.04 3.21 3.49 3.46 3.25 3.55
0.11 0.19 0.29 0.33 0.27 0.39 0.60 0.87 1.04 1.04 1.03 1.12 1.32 1.45 1.47 1.72 2.05 2.48 2.96 3.21 3.39 3.73 4.19 4.63 4.92 4.61 4.27 4.05 3.94 3.79 3.71 3.31 3.14 3.09 3.14 2.84 2.85 2.84 2.89 3.10 3.02 3.04 3.12 2.94 3.03 3.35 3.20 2.82 3.24
0.14 0.18 0.19 0.23 0.26 0.41 0.65 1.07 1.19 1.01 0.94 1.01 1.14 1.41 1.62 1.67 1.96 2.27 2.71 2.93 3.02 3.19 3.35 3.49 3.69 3.74 3.76 3.80 3.87 3.94 4.07 3.73 3.60 3.55 3.46 3.03 2.92 2.87 2.94 2.89 2.84 2.94 2.87 2.83 2.83 3.04 3.14 2.96 2.98
0.18 0.12 0.10 0.13 0.28 0.59 0.71 1.24 1.37 1.13 1.07 1.09 1.13 1.25 1.35 1.53 1.63 1.74 2.05 2.48 2.46 2.50 2.76 3.21 3.42 3.54 3.73 3.97 3.95 3.95 3.90 3.81 3.79 3.91 3.87 3.68 3.39 3.14 2.94 2.76 2.69 2.64 2.56 2.66 2.44 2.72 2.95 3.07 2.77
0.12 0.09 0.09 0.13 0.27 0.48 0.57 0.90 1.18 1.23 1.18 1.09 1.05 1.14 1.21 1.30 1.40 1.49 1.69 2.11 2.19 2.10 2.39 2.92 3.44 3.71 3.86 4.04 4.13 4.36 4.19 4.04 3.91 3.97 4.04 3.80 3.54 3.20 2.85 2.80 2.73 2.66 2.53 2.44 2.38 2.60 2.55 2.64 2.63
0.08 0.11 0.19 0.27 0.47 0.84 0.67 0.73 1.15 1.18 1.04 0.96 0.86 0.88 0.98 0.96 1.03 1.22 1.54 1.97 2.17 2.25 2.50 2.87 3.32 3.67 3.84 3.94 3.98 4.05 4.03 4.00 3.80 3.68 3.43 3.06 2.92 2.81 2.59 2.53 2.50 2.40 2.39 2.40 2.38 2.41 2.37 2.45 2.52
0.10 0.20 0.62 0.97 1.21 1.25 0.66 0.69 1.05 0.90 0.85 0.80 0.87 0.87 0.79 0.78 0.87 0.90 1.02 1.19 1.32 1.52 1.79 2.05 2.39 2.76 2.99 3.17 3.24 3.22 3.42 3.45 3.19 2.94 2.74 2.44 2.21 2.08 2.07 2.14 2.18 2.12 2.17 2.19 2.32 2.25 2.17 2.27 2.41
0.10 0.14 0.44 0.69 0.80 0.90 0.81 1.12 1.14 0.79 0.68 0.69 0.77 0.74 0.60 0.55 0.55 0.57 0.63 0.71 0.97 1.26 1.63 1.83 1.89 2.03 2.30 2.49 2.57 2.60 2.69 2.64 2.46 2.53 2.29 2.08 1.91 1.79 1.87 1.97 1.94 1.90 1.93 1.89 2.13 2.00 1.95 2.06 2.11
0.08 0.08 0.13 0.23 0.33 0.64 0.94 1.29 1.20 0.84 0.74 0.66 0.56 0.50 0.48 0.40 0.39 0.45 0.48 0.55 0.78 1.06 1.30 1.44 1.57 1.79 2.06 2.27 2.25 2.21 2.07 2.06 2.11 2.09 1.94 1.85 1.89 1.80 1.87 1.85 1.90 1.89 1.92 1.98 2.09 1.94 1.89 2.09 2.04
0.09 0.09 0.12 0.17 0.35 0.61 0.88 1.23 1.34 1.06 0.94 0.74 0.65 0.67 0.50 0.39 0.37 0.44 0.44 0.51 0.64 0.76 1.00 1.20 1.39 1.65 1.80 1.92 1.93 1.86 1.87 1.83 1.85 1.79 1.75 1.74 1.82 1.87 1.89 1.89 1.97 1.89 1.83 1.86 1.91 1.72 1.74 1.96 2.03
0.11 0.11 0.12 0.15 0.19 0.41 0.81 1.09 0.97 0.91 0.80 0.67 0.66 0.64 0.56 0.50 0.40 0.36 0.41 0.46 0.59 0.75 0.94 1.21 1.41 1.54 1.61 1.63 1.67 1.74 1.72 1.71 1.75 1.68 1.63 1.68 1.84 1.88 1.82 1.80 1.81 1.80 1.75 1.79 1.83 1.65 1.79 1.94 1.99
0.12 0.12 0.14 0.19 0.19 0.21 0.46 0.82 0.69 0.65 0.68 0.65 0.63 0.64 0.63 0.54 0.50 0.48 0.55 0.57 0.66 0.81 0.94 1.23 1.50 1.55 1.59 1.65 1.79 1.92 1.98 2.00 1.95 1.76 1.64 1.71 1.81 1.86 1.87 1.86 1.82 1.71 1.73 1.91 1.97 1.86 1.95 2.03 2.00

GEFSSGP_prec_meanprecacc_264.txt.gz
Total_Precipitation_Accumulation
0.10 0.28 0.57 0.86 1.16 1.51 1.39 0.89 0.60 0.56 0.63 0.59 0.64 0.66 0.70 0.76 1.09 1.80 1.40 1.06 0.97 0.96 0.92 1.01 1.19 1.15 1.19 1.22 1.26 1.39 1.41 1.41 1.44 1.41 1.38 1.42 1.45 1.45 1.44 1.43 1.53 1.58 1.61 1.69 1.69 1.55 1.40 1.25 1.18
0.16 0.38 0.62 0.92 1.40 1.76 1.42 0.76 0.55 0.59 0.59 0.52 0.54 0.64 0.75 0.64 0.62 0.89 1.06 0.91 0.69 0.68 0.72 0.77 1.02 1.06 1.05 1.10 1.16 1.29 1.30 1.27 1.29 1.30 1.35 1.37 1.41 1.47 1.51 1.52 1.57 1.54 1.54 1.74 1.60 1.40 1.17 1.06 1.07
0.24 0.45 0.64 0.95 1.09 1.25 1.03 0.55 0.46 0.42 0.53 0.59 0.60 0.59 0.72 0.67 0.60 0.74 0.84 0.69 0.51 0.50 0.61 0.81 0.97 1.05 1.05 1.03 1.09 1.18 1.16 1.17 1.18 1.17 1.22 1.29 1.35 1.46 1.52 1.52 1.47 1.38 1.45 1.63 1.50 1.25 1.04 0.94 0.96
0.35 0.51 0.58 0.72 0.63 0.63 0.54 0.40 0.36 0.35 0.47 0.55 0.66 0.74 0.75 0.68 0.69 0.73 0.64 0.52 0.38 0.44 0.56 0.79 0.93 0.93 0.91 0.91 1.00 1.08 1.11 1.13 1.10 1.06 1.14 1.24 1.29 1.34 1.37 1.34 1.26 1.23 1.32 1.38 1.52 1.23 1.05 0.97 1.02
0.37 0.47 0.69 0.62 0.52 0.52 0.47 0.37 0.34 0.32 0.43 0.57 0.59 0.82 1.01 0.86 0.66 0.56 0.49 0.47 0.40 0.47 0.55 0.67 0.84 0.85 0.90 0.93 0.93 0.95 1.08 1.08 1.02 1.02 1.08 1.21 1.22 1.30 1.30 1.17 1.08 1.12 1.27 1.29 1.37 1.32 1.14 1.01 1.02
0.29 0.43 0.56 0.48 0.44 0.40 0.36 0.31 0.32 0.34 0.43 0.65 0.59 0.79 1.24 1.04 0.69 0.57 0.46 0.44 0.46 0.48 0.51 0.58 0.72 0.77 0.84 0.86 0.86 0.90 0.93 0.97 1.01 1.06 1.09 1.08 1.16 1.21 1.14 1.06 1.05 1.02 1.18 1.20 1.14 1.27 1.16 1.00 0.99
0.24 0.33 0.33 0.33 0.32 0.33 0.29 0.29 0.30 0.30 0.48 0.78 0.63 0.86 1.39 1.35 0.85 0.65 0.62 0.53 0.53 0.50 0.53 0.56 0.64 0.72 0.78 0.84 0.85 0.92 0.98 0.95 1.00 1.05 1.09 1.12 1.10 1.02 0.96 1.03 1.04 0.97 1.02 1.05 1.00 1.00 0.95 0.89 0.91
0.17 0.18 0.19 0.23 0.24 0.24 0.19 0.22 0.25 0.39 0.53 0.66 0.54 0.82 1.48 1.40 0.91 0.80 0.86 0.78 0.87 0.86 0.77 0.60 0.54 0.65 0.73 0.74 0.88 0.96 0.97 0.96 0.98 1.04 1.12 1.13 1.03 0.94 0.94 0.96 1.04 1.01 0.96 0.93 0.90 0.84 0.81 0.84 0.89
0.11 0.16 0.19 0.17 0.17 0.16 0.16 0.18 0.22 0.36 0.52 0.68 0.71 0.78 1.04 0.94 0.90 0.99 1.12 1.21 1.27 1.36 1.24 0.84 0.67 0.71 0.80 0.72 0.74 0.97 1.06 1.05 1.14 1.24 1.29 1.35 1.43 1.25 1.31 1.23 1.28 1.20 1.10 1.08 1.08 1.02 0.96 0.86 0.80
0.09 0.16 0.14 0.08 0.09 0.13 0.13 0.16 0.25 0.41 0.67 0.94 0.96 0.96 1.13 1.06 0.90 0.98 1.08 1.28 1.39 1.54 1.49 1.14 1.01 0.84 0.77 0.68 0.86 1.16 1.18 1.30 1.45 1.57 1.48 1.74 1.96 1.79 1.39 1.57 1.84 1.76 1.69 1.59 1.56 1.48 1.23 1.01 0.96
0.06 0.06 0.06 0.06 0.06 0.09 0.12 0.15 0.23 0.43 0.83 1.26 1.50 1.53 1.39 1.26 1.21 1.19 1.20 1.38 1.60 1.67 1.59 1.35 1.27 1.15 0.95 1.05 1.04 1.25 1.55 1.76 1.65 1.50 1.55 1.92 1.81 1.55 1.55 1.71 1.89 2.07 1.97 1.89 1.97 2.01 1.72 1.64 1.92
0.03 0.02 0.03 0.04 0.05 0.07 0.11 0.15 0.24 0.43 0.78 1.05 1.27 1.55 1.68 1.55 1.61 1.60 1.58 1.82 2.03 1.95 1.84 1.65 1.46 1.32 1.27 1.26 1.24 1.36 1.50 1.71 1.73 1.77 1.69 1.92 2.24 2.15 2.13 2.25 2.21 2.29 2.44 2.75 2.60 2.64 2.39 2.24 2.17
0.03 0.04 0.04 0.05 0.06 0.07 0.10 0.19 0.31 0.49 0.61 0.79 0.94 1.11 1.39 1.74 2.08 2.20 2.30 2.67 2.58 2.44 2.35 2.14 1.79 1.75 1.70 1.79 1.87 1.63 1.68 1.79 2.01 2.17 2.13 2.11 2.40 2.42 2.47 2.50 2.50 2.34 2.44 2.62 2.89 2.76 2.80 2.83 2.59
0.04 0.05 0.06 0.07 0.08 0.09 0.15 0.30 0.35 0.54 0.60 0.71 0.90 1.10 1.64 2.23 2.41 2.70 3.11 3.37 3.28 3.08 3.13 2.90 2.53 2.48 2.43 2.28 2.25 2.15 1.96 2.12 2.20 2.32 2.30 2.32 2.56 2.74 2.71 2.54 2.55 2.41 2.39 2.51 2.75 2.81 3.17 3.14 3.03
0.04 0.07 0.10 0.11 0.11 0.14 0.22 0.47 0.53 0.63 0.68 0.80 1.14 1.33 1.78 2.13 2.41 2.56 3.03 3.36 3.36 3.34 3.54 3.52 3.34 3.33 3.26 3.03 2.74 2.50 2.39 2.33 2.54 2.65 2.57 2.62 2.67 2.86 2.82 2.73 2.53 2.49 2.53 2.74 2.84 2.88 3.15 3.17 3.08
0.08 0.16 0.25 0.19 0.16 0.18 0.30 0.77 0.69 0.69 0.89 1.15 1.37 1.51 1.75 1.91 2.29 2.43 2.81 3.29 3.55 3.59 3.82 4.05 3.98 3.99 3.83 3.64 3.35 3.05 2.82 2.76 2.76 2.71 2.72 2.65 2.77 2.83 2.95 2.75 2.49 2.57 2.54 2.70 3.00 3.10 3.29 3.49 3.48
0.13 0.22 0.33 0.32 0.24 0.21 0.39 0.85 0.85 0.91 1.04 1.16 1.28 1.53 1.70 1.69 2.04 2.48 2.79 3.36 3.79 3.94 4.32 4.72 4.79 4.72 4.40 4.03 3.82 3.68 3.43 3.20 2.98 2.94 2.85 2.75 2.74 2.70 2.87 2.71 2.62 2.66 2.85 2.87 2.68 3.26 3.59 3.68 3.65
0.17 0.17 0.22 0.29 0.26 0.27 0.45 0.64 0.77 0.96 1.12 1.24 1.25 1.38 1.42 1.55 2.01 2.56 2.91 3.26 3.92 4.45 5.06 5.17 5.18 5.43 5.16 4.82 4.60 4.36 3.92 3.52 3.21 3.09 2.97 2.74 2.68 2.62 2.88 2.61 2.61 2.76 3.03 3.10 3.20 3.62 3.71 3.54 3.71
0.12 0.18 0.26 0.31 0.28 0.42 0.61 0.76 0.87 1.00 1.08 1.27 1.36 1.30 1.33 1.62 2.04 2.49 2.89 3.30 3.71 4.29 4.90 5.54 5.71 5.57 5.34 5.03 4.57 4.20 3.78 3.51 3.22 2.96 2.75 2.69 2.66 2.74 3.16 2.80 3.04 2.97 3.02 3.07 3.26 3.53 3.51 3.30 3.61
0.12 0.20 0.30 0.34 0.28 0.40 0.62 0.90 1.06 1.06 1.06 1.14 1.32 1.45 1.47 1.72 2.05 2.48 2.96 3.21 3.39 3.73 4.19 4.64 4.94 4.63 4.29 4.08 3.96 3.81 3.73 3.33 3.17 3.12 3.15 2.86 2.87 2.86 2.91 3.11 3.04 3.06 3.14 2.96 3.06 3.39 3.23 2.85 3.27
0.15 0.18 0.20 0.25 0.28 0.42 0.68 1.11 1.24 1.04 0.96 1.02 1.14 1.42 1.62 1.67 1.96 2.27 2.71 2.93 3.02 3.19 3.35 3.50 3.70 3.76 3.78 3.82 3.89 3.96 4.08 3.75 3.62 3.57 3.48 3.03 2.93 2.89 2.96 2.91 2.86 2.96 2.89 2.84 2.86 3.07 3.18 2.99 3.02
0.18 0.13 0.11 0.14 0.30 0.62 0.73 1.29 1.42 1.15 1.08 1.10 1.13 1.25 1.35 1.53 1.63 1.74 2.06 2.48 2.46 2.50 2.77 3.22 3.43 3.55 3.73 3.97 3.96 3.96 3.92 3.83 3.81 3.93 3.88 3.69 3.40 3.16 2.95 2.77 2.71 2.66 2.57 2.68 2.46 2.75 2.98 3.10 2.81
0.12 0.09 0.11 0.15 0.29 0.50 0.59 0.92 1.20 1.24 1.19 1.10 1.06 1.15 1.21 1.30 1.40 1.50 1.70 2.11 2.19 2.10 2.39 2.92 3.44 3.71 3.87 4.05 4.14 4.38 4.21 4.06 3.93 3.98 4.05 3.81 3.55 3.22 2.87 2.81 2.75 2.68 2.55 2.46 2.41 2.62 2.58 2.67 2.68
0.09 0.12 0.21 0.29 0.50 0.85 0.69 0.75 1.17 1.19 1.05 0.97 0.86 0.89 0.98 0.96 1.03 1.23 1.54 1.97 2.17 2.26 2.50 2.87 3.33 3.68 3.85 3.95 3.99 4.06 4.04 4.02 3.80 3.69 3.44 3.06 2.93 2.82 2.61 2.54 2.52 2.43 2.44 2.44 2.41 2.43 2.40 2.48 2.56
0.11 0.20 0.63 1.00 1.26 1.26 0.67 0.70 1.06 0.91 0.86 0.80 0.88 0.88 0.79 0.78 0.87 0.90 1.02 1.20 1.34 1.54 1.80 2.06 2.42 2.78 3.01 3.17 3.25 3.22 3.43 3.46 3.19 2.94 2.74 2.45 2.21 2.08 2.08 2.15 2.19 2.13 2.18 2.21 2.35 2.28 2.20 2.30 2.45
0.11 0.15 0.45 0.71 0.83 0.91 0.82 1.13 1.14 0.79 0.69 0.70 0.78 0.75 0.61 0.56 0.56 0.58 0.63 0.74 0.99 1.28 1.65 1.86 1.92 2.06 2.31 2.49 2.57 2.61 2.69 2.65 2.47 2.53 2.29 2.08 1.91 1.80 1.88 1.98 1.96 1.92 1.94 1.90 2.15 2.02 1.97 2.08 2.14
0.08 0.09 0.14 0.23 0.34 0.65 0.95 1.29 1.21 0.88 0.82 0.75 0.64 0.56 0.50 0.41 0.40 0.46 0.49 0.56 0.79 1.07 1.32 1.46 1.59 1.81 2.06 2.28 2.26 2.22 2.08 2.07 2.12 2.09 1.95 1.85 1.89 1.80 1.87 1.86 1.91 1.90 1.93 1.99 2.10 1.95 1.91 2.11 2.07
0.09 0.10 0.13 0.18 0.36 0.64 0.91 1.25 1.37 1.10 0.99 0.80 0.73 0.76 0.53 0.40 0.37 0.45 0.45 0.51 0.64 0.76 1.01 1.21 1.40 1.66 1.81 1.92 1.94 1.86 1.88 1.83 1.85 1.79 1.75 1.74 1.82 1.87 1.90 1.90 1.98 1.90 1.85 1.88 1.93 1.73 1.75 1.98 2.05
0.12 0.12 0.13 0.15 0.21 0.45 0.84 1.11 1.01 0.93 0.82 0.68 0.68 0.66 0.57 0.51 0.41 0.37 0.42 0.47 0.60 0.76 0.96 1.22 1.42 1.55 1.62 1.63 1.67 1.74 1.72 1.71 1.75 1.68 1.63 1.68 1.85 1.88 1.83 1.81 1.81 1.81 1.77 1.81 1.84 1.67 1.81 1.95 2.00
0.13 0.13 0.14 0.20 0.20 0.23 0.48 0.84 0.71 0.66 0.69 0.67 0.64 0.64 0.63 0.55 0.51 0.49 0.56 0.59 0.68 0.82 0.95 1.25 1.52 1.57 1.60 1.66 1.80 1.92 1.98 2.01 1.95 1.76 1.65 1.71 1.81 1.86 1.88 1.87 1.83 1.72 1.74 1.92 1.98 1.87 1.95 2.03 2.01

GEFSSGP_prec_meanprecacc_270.txt.gz
Total_Precipitation_Accumulation
0.11 0.30 0.59 0.89 1.19 1.55 1.42 0.93 0.65 0.61 0.68 0.64 0.69 0.71 0.72 0.78 1.14 1.89 1.48 1.14 1.08 1.05 1.00 1.12 1.32 1.27 1.30 1.30 1.33 1.45 1.47 1.48 1.51 1.49 1.47 1.50 1.53 1.54 1.52 1.51 1.61 1.66 1.67 1.75 1.75 1.61 1.47 1.31 1.23
0.18 0.41 0.65 0.96 1.43 1.79 1.45 0.79 0.59 0.62 0.62 0.54 0.56 0.67 0.78 0.67 0.67 0.96 1.10 0.98 0.79 0.75 0.78 0.86 1.11 1.17 1.16 1.18 1.23 1.34 1.35 1.33 1.35 1.37 1.42 1.45 1.50 1.57 1.60 1.60 1.64 1.62 1.62 1.83 1.69 1.49 1.25 1.12 1.11
0.25 0.47 0.66 0.97 1.10 1.27 1.05 0.59 0.51 0.45 0.55 0.61 0.61 0.61 0.77 0.72 0.66 0.79 0.88 0.74 0.56 0.54 0.67 0.89 1.07 1.17 1.16 1.11 1.15 1.24 1.22 1.23 1.26 1.25 1.29 1.37 1.45 1.59 1.64 1.62 1.57 1.49 1.57 1.74 1.60 1.34 1.12 1.00 1.00
0.36 0.54 0.59 0.73 0.64 0.65 0.56 0.43 0.40 0.38 0.49 0.57 0.68 0.77 0.79 0.74 0.74 0.76 0.68 0.56 0.41 0.47 0.61 0.86 1.03 1.05 1.00 0.98 1.06 1.15 1.19 1.22 1.20 1.14 1.21 1.32 1.39 1.48 1.50 1.44 1.37 1.36 1.44 1.49 1.63 1.31 1.13 1.04 1.07
0.39 0.51 0.71 0.63 0.53 0.55 0.50 0.39 0.35 0.33 0.45 0.59 0.62 0.85 1.05 0.92 0.70 0.59 0.53 0.51 0.42 0.50 0.59 0.74 0.94 0.99 1.02 1.04 1.03 1.05 1.17 1.16 1.09 1.10 1.17 1.31 1.31 1.42 1.42 1.28 1.17 1.20 1.34 1.37 1.49 1.40 1.21 1.08 1.08
0.31 0.45 0.58 0.50 0.46 0.42 0.40 0.33 0.34 0.35 0.44 0.66 0.60 0.81 1.31 1.11 0.72 0.59 0.49 0.47 0.49 0.51 0.54 0.62 0.81 0.94 1.02 1.02 0.99 1.01 1.02 1.04 1.08 1.13 1.17 1.18 1.26 1.34 1.29 1.19 1.15 1.09 1.24 1.26 1.26 1.45 1.30 1.15 1.08
0.26 0.36 0.35 0.36 0.34 0.36 0.33 0.30 0.31 0.30 0.49 0.79 0.66 0.89 1.46 1.42 0.90 0.68 0.66 0.56 0.57 0.53 0.56 0.60 0.70 0.84 0.93 0.98 0.97 1.03 1.10 1.04 1.06 1.11 1.15 1.22 1.22 1.15 1.09 1.16 1.17 1.05 1.08 1.11 1.12 1.28 1.30 1.19 1.08
0.18 0.19 0.20 0.25 0.26 0.27 0.22 0.23 0.26 0.40 0.54 0.67 0.56 0.84 1.52 1.45 0.96 0.84 0.90 0.82 0.91 0.90 0.80 0.62 0.58 0.71 0.80 0.83 0.98 1.09 1.10 1.05 1.04 1.08 1.17 1.22 1.13 1.04 1.03 1.05 1.13 1.08 1.02 1.00 0.99 1.01 1.14 1.16 1.12
0.12 0.17 0.20 0.18 0.19 0.18 0.17 0.18 0.23 0.38 0.53 0.69 0.71 0.78 1.06 0.97 0.93 1.01 1.14 1.24 1.29 1.38 1.26 0.86 0.69 0.75 0.86 0.79 0.83 1.08 1.18 1.13 1.21 1.31 1.36 1.46 1.51 1.30 1.36 1.29 1.36 1.25 1.15 1.16 1.17 1.12 1.14 1.07 0.97
0.10 0.17 0.15 0.09 0.10 0.14 0.14 0.17 0.25 0.42 0.68 0.95 0.96 0.97 1.15 1.08 0.93 1.00 1.10 1.29 1.40 1.55 1.51 1.15 1.04 0.87 0.80 0.73 0.92 1.24 1.27 1.37 1.50 1.62 1.53 1.80 2.00 1.82 1.43 1.64 1.92 1.83 1.76 1.67 1.65 1.58 1.32 1.08 1.03
0.06 0.06 0.06 0.07 0.07 0.10 0.13 0.17 0.24 0.44 0.85 1.28 1.51 1.54 1.41 1.28 1.24 1.21 1.22 1.39 1.61 1.68 1.60 1.37 1.30 1.19 0.99 1.10 1.08 1.30 1.60 1.81 1.70 1.55 1.60 1.96 1.85 1.59 1.60 1.76 1.95 2.12 2.02 1.92 2.01 2.06 1.74 1.67 1.95
0.03 0.03 0.03 0.04 0.05 0.07 0.11 0.16 0.25 0.44 0.80 1.06 1.28 1.56 1.69 1.57 1.64 1.64 1.61 1.84 2.05 1.96 1.85 1.68 1.49 1.36 1.32 1.31 1.29 1.41 1.54 1.75 1.78 1.82 1.74 1.96 2.28 2.18 2.15 2.28 2.23 2.31 2.45 2.76 2.62 2.66 2.41 2.25 2.19
0.03 0.04 0.04 0.05 0.06 0.08 0.10 0.20 0.32 0.50 0.62 0.79 0.95 1.12 1.39 1.75 2.09 2.23 2.34 2.69 2.61 2.47 2.40 2.19 1.84 1.79 1.74 1.82 1.90 1.66 1.71 1.81 2.05 2.22 2.18 2.16 2.44 2.44 2.48 2.52 2.53 2.37 2.47 2.65 2.92 2.79 2.83 2.86 2.61
0.04 0.05 0.06 0.07 0.08 0.09 0.15 0.30 0.35 0.56 0.61 0.71 0.91 1.11 1.64 2.24 2.42 2.72 3.13 3.40 3.32 3.14 3.20 2.96 2.57 2.51 2.46 2.31 2.27 2.18 1.99 2.14 2.23 2.36 2.33 2.36 2.60 2.80 2.74 2.57 2.60 2.46 2.43 2.55 2.81 2.87 3.20 3.17 3.07
0.04 0.07 0.10 0.11 0.11 0.14 0.22 0.47 0.54 0.63 0.69 0.81 1.14 1.33 1.78 2.13 2.41 2.57 3.05 3.39 3.40 3.41 3.63 3.57 3.38 3.36 3.29 3.06 2.77 2.53 2.41 2.35 2.58 2.69 2.60 2.64 2.70 2.90 2.87 2.79 2.60 2.55 2.60 2.80 2.88 2.92 3.18 3.20 3.12
0.08 0.16 0.25 0.19 0.16 0.18 0.30 0.77 0.69 0.69 0.90 1.16 1.37 1.51 1.75 1.92 2.29 2.44 2.81 3.32 3.59 3.65 3.88 4.09 4.01 4.02 3.86 3.67 3.39 3.07 2.84 2.79 2.79 2.74 2.75 2.68 2.80 2.85 2.97 2.79 2.54 2.61 2.58 2.74 3.04 3.14 3.35 3.53 3.52
0.13 0.22 0.34 0.32 0.24 0.21 0.39 0.85 0.85 0.91 1.04 1.16 1.28 1.53 1.70 1.69 2.05 2.48 2.80 3.38 3.82 3.97 4.36 4.76 4.83 4.75 4.43 4.06 3.87 3.72 3.46 3.23 3.00 2.97 2.89 2.78 2.77 2.73 2.89 2.74 2.65 2.68 2.86 2.89 2.70 3.29 3.63 3.73 3.71
0.17 0.17 0.22 0.29 0.27 0.27 0.46 0.64 0.77 0.96 1.12 1.24 1.25 1.39 1.42 1.55 2.02 2.56 2.91 3.27 3.93 4.47 5.09 5.20 5.22 5.45 5.18 4.84 4.62 4.40 3.95 3.55 3.24 3.13 3.00 2.77 2.70 2.64 2.90 2.63 2.63 2.77 3.04 3.12 3.21 3.65 3.75 3.59 3.77
0.12 0.18 0.27 0.32 0.28 0.42 0.61 0.77 0.88 1.00 1.08 1.28 1.36 1.30 1.33 1.62 2.05 2.50 2.90 3.31 3.73 4.32 4.93 5.58 5.75 5.60 5.36 5.05 4.59 4.23 3.81 3.54 3.25 2.99 2.79 2.72 2.68 2.75 3.17 2.81 3.06 2.99 3.03 3.08 3.27 3.55 3.55 3.34 3.66
0.12 0.20 0.30 0.35 0.29 0.41 0.63 0.90 1.06 1.06 1.06 1.14 1.33 1.45 1.47 1.72 2.06 2.49 2.98 3.23 3.40 3.75 4.21 4.67 4.97 4.66 4.32 4.10 3.98 3.84 3.76 3.35 3.19 3.14 3.18 2.88 2.89 2.87 2.93 3.13 3.05 3.07 3.16 2.98 3.08 3.41 3.26 2.88 3.30
0.16 0.19 0.21 0.25 0.28 0.43 0.68 1.11 1.24 1.04 0.96 1.02 1.14 1.42 1.62 1.67 1.96 2.27 2.72 2.93 3.03 3.20 3.37 3.52 3.72 3.78 3.80 3.84 3.91 3.98 4.11 3.77 3.64 3.59 3.50 3.05 2.95 2.91 2.97 2.92 2.87 2.97 2.91 2.86 2.89 3.09 3.19 3.01 3.04
0.19 0.13 0.12 0.15 0.31 0.63 0.74 1.29 1.42 1.16 1.08 1.10 1.13 1.25 1.36 1.53 1.63 1.75 2.06 2.48 2.47 2.51 2.78 3.25 3.45 3.57 3.75 3.99 3.98 3.98 3.93 3.84 3.83 3.94 3.89 3.70 3.42 3.18 2.96 2.79 2.72 2.68 2.60 2.70 2.48 2.76 2.99 3.11 2.83
0.13 0.10 0.12 0.16 0.29 0.50 0.59 0.92 1.21 1.24 1.19 1.10 1.06 1.15 1.21 1.30 1.40 1.50 1.70 2.11 2.20 2.11 2.41 2.96 3.47 3.74 3.89 4.07 4.16 4.39 4.21 4.07 3.93 3.99 4.05 3.82 3.56 3.24 2.88 2.81 2.76 2.69 2.57 2.48 2.42 2.64 2.59 2.68 2.69
0.10 0.13 0.22 0.30 0.50 0.86 0.69 0.75 1.17 1.19 1.05 0.97 0.86 0.89 0.98 0.96 1.04 1.23 1.54 1.97 2.17 2.26 2.52 2.92 3.38 3.71 3.87 3.96 4.00 4.06 4.05 4.02 3.81 3.70 3.44 3.07 2.93 2.82 2.61 2.54 2.53 2.44 2.45 2.45 2.42 2.45 2.42 2.49 2.57
0.11 0.21 0.64 1.01 1.27 1.26 0.67 0.70 1.06 0.91 0.86 0.81 0.88 0.88 0.80 0.79 0.87 0.90 1.02 1.20 1.34 1.55 1.81 2.10 2.47 2.81 3.03 3.18 3.25 3.23 3.43 3.47 3.20 2.95 2.75 2.45 2.22 2.08 2.08 2.16 2.21 2.15 2.19 2.22 2.36 2.29 2.21 2.32 2.46
0.11 0.15 0.45 0.71 0.83 0.91 0.82 1.13 1.14 0.80 0.69 0.70 0.78 0.75 0.62 0.57 0.56 0.58 0.63 0.74 0.99 1.28 1.66 1.87 1.94 2.08 2.33 2.50 2.57 2.61 2.70 2.65 2.47 2.53 2.29 2.09 1.92 1.81 1.89 1.98 1.97 1.93 1.95 1.91 2.17 2.04 1.99 2.10 2.16
0.08 0.09 0.15 0.24 0.34 0.65 0.95 1.29 1.21 0.88 0.82 0.75 0.64 0.56 0.51 0.42 0.41 0.46 0.49 0.56 0.79 1.07 1.33 1.47 1.60 1.82 2.07 2.28 2.26 2.23 2.08 2.07 2.12 2.09 1.95 1.86 1.90 1.81 1.88 1.88 1.92 1.91 1.94 2.00 2.12 1.97 1.93 2.12 2.09
0.10 0.11 0.13 0.18 0.36 0.64 0.91 1.25 1.37 1.10 0.99 0.80 0.73 0.77 0.54 0.40 0.38 0.46 0.46 0.52 0.65 0.77 1.02 1.22 1.41 1.67 1.81 1.93 1.94 1.87 1.88 1.83 1.85 1.79 1.75 1.74 1.83 1.88 1.91 1.91 1.99 1.91 1.86 1.90 1.95 1.75 1.77 2.00 2.06
0.13 0.13 0.14 0.15 0.21 0.45 0.84 1.11 1.01 0.93 0.82 0.69 0.68 0.66 0.58 0.52 0.41 0.38 0.43 0.48 0.60 0.76 0.96 1.23 1.43 1.56 1.63 1.65 1.68 1.75 1.72 1.72 1.75 1.68 1.63 1.68 1.85 1.89 1.84 1.81 1.82 1.81 1.78 1.83 1.85 1.67 1.81 1.97 2.02
0.14 0.14 0.15 0.20 0.20 0.23 0.48 0.84 0.71 0.66 0.69 0.67 0.64 0.64 0.63 0.55 0.51 0.50 0.57 0.60 0.68 0.82 0.96 1.25 1.53 1.57 1.61 1.68 1.81 1.93 1.98 2.01 1.95 1.76 1.65 1.71 1.81 1.87 1.88 1.88 1.83 1.73 1.75 1.92 1.99 1.88 1.96 2.05 2.03

GEFSSGP_prec_meanprecacc_276.txt.gz
Total_Precipitation_Accumulation
0.11 0.31 0.61 0.92 1.23 1.58 1.46 0.96 0.68 0.64 0.70 0.65 0.70 0.72 0.73 0.81 1.19 1.97 1.54 1.20 1.13 1.11 1.10 1.33 1.56 1.41 1.41 1.40 1.44 1.56 1.57 1.58 1.62 1.60 1.58 1.60 1.62 1.64 1.61 1.62 1.72 1.76 1.74 1.81 1.81 1.66 1.53 1.36 1.27
0.18 0.41 0.66 0.98 1.45 1.81 1.48 0.82 0.62 0.65 0.64 0.55 0.57 0.68 0.79 0.69 0.70 1.00 1.15 1.03 0.84 0.82 0.89 0.99 1.30 1.31 1.26 1.27 1.34 1.45 1.45 1.43 1.44 1.47 1.52 1.56 1.62 1.69 1.74 1.74 1.77 1.72 1.70 1.89 1.74 1.56 1.32 1.18 1.15
0.25 0.47 0.68 0.98 1.11 1.28 1.08 0.62 0.54 0.47 0.57 0.62 0.62 0.61 0.78 0.75 0.71 0.85 0.93 0.79 0.61 0.61 0.77 1.03 1.25 1.33 1.26 1.18 1.24 1.34 1.32 1.33 1.36 1.35 1.40 1.48 1.57 1.74 1.81 1.77 1.70 1.61 1.67 1.81 1.68 1.43 1.18 1.05 1.04
0.36 0.54 0.60 0.74 0.65 0.66 0.58 0.46 0.42 0.40 0.50 0.58 0.68 0.78 0.82 0.81 0.83 0.81 0.72 0.61 0.45 0.51 0.69 0.98 1.18 1.19 1.10 1.06 1.16 1.25 1.29 1.34 1.30 1.23 1.33 1.46 1.53 1.61 1.64 1.60 1.52 1.49 1.55 1.60 1.74 1.40 1.18 1.07 1.11
0.40 0.52 0.71 0.64 0.54 0.57 0.51 0.40 0.37 0.34 0.45 0.59 0.62 0.87 1.11 0.98 0.74 0.62 0.57 0.55 0.46 0.54 0.65 0.83 1.07 1.12 1.14 1.16 1.14 1.16 1.29 1.27 1.19 1.19 1.28 1.44 1.45 1.56 1.56 1.41 1.29 1.29 1.43 1.47 1.59 1.47 1.25 1.12 1.12
0.32 0.46 0.58 0.51 0.47 0.44 0.42 0.35 0.35 0.36 0.45 0.67 0.61 0.83 1.36 1.16 0.76 0.62 0.52 0.50 0.52 0.54 0.60 0.72 0.96 1.07 1.13 1.15 1.11 1.13 1.11 1.12 1.16 1.21 1.27 1.28 1.36 1.47 1.43 1.32 1.24 1.16 1.32 1.35 1.32 1.50 1.35 1.19 1.12
0.27 0.37 0.36 0.37 0.35 0.37 0.34 0.31 0.32 0.32 0.49 0.80 0.67 0.92 1.51 1.46 0.92 0.70 0.67 0.59 0.59 0.57 0.62 0.74 0.94 1.04 1.07 1.11 1.09 1.14 1.19 1.12 1.14 1.19 1.26 1.35 1.34 1.27 1.21 1.27 1.25 1.13 1.18 1.19 1.18 1.37 1.47 1.30 1.15
0.19 0.19 0.21 0.26 0.27 0.28 0.22 0.23 0.26 0.40 0.55 0.68 0.57 0.86 1.56 1.48 0.97 0.85 0.91 0.85 0.94 0.94 0.88 0.77 0.76 0.91 1.00 0.99 1.12 1.21 1.21 1.15 1.13 1.18 1.30 1.40 1.30 1.20 1.14 1.13 1.20 1.15 1.09 1.08 1.09 1.26 1.41 1.28 1.23
0.12 0.18 0.21 0.19 0.19 0.19 0.17 0.18 0.23 0.38 0.53 0.69 0.72 0.79 1.08 0.98 0.94 1.03 1.17 1.26 1.32 1.41 1.33 0.96 0.79 0.87 1.01 0.96 0.99 1.22 1.31 1.24 1.32 1.45 1.51 1.65 1.67 1.43 1.44 1.37 1.43 1.32 1.22 1.26 1.31 1.35 1.52 1.33 1.14
0.10 0.18 0.15 0.10 0.11 0.14 0.14 0.17 0.26 0.43 0.69 0.96 0.97 0.97 1.16 1.09 0.94 1.03 1.13 1.31 1.43 1.58 1.55 1.22 1.12 0.98 0.93 0.87 1.07 1.37 1.38 1.45 1.60 1.74 1.66 1.97 2.15 1.95 1.50 1.72 1.99 1.90 1.83 1.75 1.76 1.71 1.55 1.39 1.32
0.06 0.07 0.07 0.07 0.07 0.10 0.13 0.17 0.25 0.45 0.85 1.28 1.51 1.55 1.43 1.29 1.25 1.24 1.26 1.42 1.64 1.71 1.64 1.42 1.36 1.27 1.10 1.22 1.20 1.40 1.68 1.87 1.77 1.63 1.68 2.08 1.96 1.69 1.67 1.82 2.00 2.17 2.08 1.99 2.09 2.16 1.86 1.84 2.15
0.03 0.03 0.03 0.04 0.05 0.07 0.11 0.16 0.26 0.44 0.80 1.06 1.29 1.57 1.70 1.57 1.65 1.66 1.64 1.86 2.07 1.99 1.89 1.72 1.53 1.41 1.37 1.37 1.35 1.48 1.60 1.79 1.82 1.89 1.82 2.03 2.37 2.26 2.21 2.32 2.27 2.35 2.51 2.82 2.69 2.75 2.50 2.35 2.30
0.03 0.04 0.04 0.05 0.06 0.08 0.10 0.20 0.32 0.51 0.63 0.80 0.96 1.12 1.39 1.75 2.10 2.25 2.36 2.72 2.64 2.51 2.44 2.22 1.87 1.82 1.76 1.86 1.95 1.70 1.75 1.85 2.08 2.29 2.25 2.22 2.52 2.52 2.55 2.59 2.60 2.44 2.54 2.72 2.98 2.84 2.90 2.94 2.68
0.04 0.05 0.06 0.07 0.08 0.09 0.15 0.30 0.36 0.57 0.62 0.72 0.92 1.11 1.65 2.24 2.43 2.74 3.16 3.44 3.36 3.18 3.24 2.99 2.59 2.54 2.48 2.33 2.31 2.23 2.02 2.18 2.27 2.41 2.39 2.41 2.66 2.86 2.82 2.65 2.68 2.53 2.50 2.62 2.86 2.92 3.27 3.24 3.14
0.04 0.07 0.10 0.11 0.11 0.14 0.22 0.47 0.54 0.64 0.70 0.82 1.15 1.34 1.78 2.14 2.42 2.58 3.06 3.41 3.43 3.43 3.65 3.60 3.40 3.38 3.31 3.09 2.81 2.56 2.44 2.39 2.63 2.75 2.66 2.70 2.75 2.96 2.93 2.84 2.66 2.61 2.66 2.87 2.96 2.98 3.24 3.25 3.17
0.08 0.16 0.25 0.19 0.16 0.18 0.30 0.77 0.69 0.69 0.90 1.16 1.38 1.51 1.76 1.92 2.30 2.45 2.83 3.33 3.61 3.67 3.90 4.11 4.03 4.04 3.88 3.70 3.42 3.10 2.88 2.83 2.83 2.77 2.79 2.72 2.83 2.90 3.02 2.83 2.59 2.67 2.63 2.82 3.15 3.26 3.45 3.63 3.61
0.13 0.22 0.34 0.32 0.24 0.21 0.39 0.85 0.85 0.91 1.04 1.16 1.28 1.54 1.71 1.70 2.06 2.50 2.81 3.40 3.83 3.99 4.38 4.78 4.85 4.77 4.45 4.09 3.91 3.75 3.50 3.27 3.04 3.00 2.91 2.81 2.79 2.75 2.93 2.78 2.71 2.74 2.91 2.94 2.74 3.36 3.71 3.83 3.80
0.17 0.17 0.22 0.29 0.27 0.27 0.46 0.64 0.77 0.96 1.12 1.24 1.25 1.39 1.42 1.56 2.02 2.57 2.92 3.28 3.94 4.48 5.11 5.22 5.24 5.47 5.21 4.87 4.66 4.43 4.00 3.59 3.28 3.16 3.03 2.80 2.73 2.66 2.94 2.68 2.68 2.82 3.10 3.18 3.26 3.70 3.80 3.64 3.83
0.12 0.18 0.27 0.32 0.28 0.42 0.61 0.77 0.88 1.00 1.08 1.28 1.36 1.30 1.34 1.63 2.05 2.51 2.90 3.32 3.74 4.33 4.95 5.60 5.77 5.63 5.40 5.08 4.61 4.25 3.85 3.59 3.30 3.02 2.81 2.75 2.71 2.79 3.22 2.87 3.13 3.04 3.09 3.14 3.32 3.58 3.58 3.38 3.70
0.12 0.20 0.30 0.35 0.29 0.41 0.63 0.90 1.06 1.06 1.06 1.14 1.33 1.45 1.47 1.72 2.06 2.49 2.98 3.24 3.41 3.76 4.23 4.69 4.99 4.68 4.34 4.12 4.01 3.87 3.79 3.39 3.23 3.17 3.22 2.91 2.92 2.91 2.97 3.18 3.10 3.12 3.20 3.02 3.11 3.44 3.28 2.91 3.33
0.16 0.19 0.21 0.25 0.28 0.43 0.69 1.11 1.24 1.04 0.96 1.02 1.14 1.42 1.62 1.68 1.96 2.27 2.72 2.94 3.04 3.21 3.38 3.54 3.74 3.80 3.81 3.86 3.94 4.02 4.16 3.82 3.70 3.65 3.56 3.09 2.98 2.94 3.00 2.95 2.91 3.01 2.94 2.90 2.92 3.12 3.23 3.05 3.06
0.19 0.13 0.12 0.15 0.31 0.63 0.74 1.29 1.42 1.16 1.08 1.10 1.13 1.25 1.36 1.53 1.63 1.75 2.06 2.49 2.47 2.52 2.80 3.27 3.48 3.59 3.77 4.01 4.00 4.01 3.97 3.89 3.88 3.99 3.93 3.74 3.45 3.21 2.99 2.81 2.75 2.73 2.64 2.73 2.50 2.79 3.03 3.16 2.86
0.13 0.11 0.13 0.16 0.30 0.50 0.59 0.92 1.21 1.24 1.19 1.10 1.06 1.15 1.21 1.30 1.40 1.50 1.70 2.11 2.20 2.11 2.42 2.97 3.50 3.76 3.91 4.09 4.18 4.42 4.25 4.10 3.96 4.02 4.09 3.85 3.58 3.26 2.90 2.84 2.80 2.74 2.62 2.51 2.44 2.66 2.62 2.72 2.73
0.10 0.14 0.22 0.30 0.50 0.86 0.69 0.75 1.17 1.19 1.05 0.97 0.86 0.89 0.98 0.96 1.04 1.23 1.54 1.97 2.18 2.27 2.53 2.94 3.40 3.73 3.89 3.98 4.02 4.10 4.10 4.06 3.83 3.71 3.45 3.08 2.95 2.84 2.63 2.57 2.58 2.49 2.49 2.48 2.45 2.47 2.44 2.52 2.60
0.11 0.22 0.65 1.01 1.27 1.27 0.67 0.70 1.06 0.91 0.86 0.81 0.88 0.88 0.80 0.79 0.87 0.90 1.02 1.20 1.34 1.55 1.82 2.11 2.49 2.83 3.04 3.20 3.27 3.26 3.47 3.49 3.21 2.95 2.75 2.45 2.23 2.10 2.10 2.19 2.25 2.19 2.23 2.25 2.39 2.32 2.24 2.35 2.50
0.11 0.15 0.46 0.72 0.83 0.92 0.82 1.13 1.14 0.80 0.69 0.70 0.78 0.76 0.62 0.57 0.56 0.58 0.63 0.74 1.00 1.28 1.66 1.88 1.96 2.11 2.35 2.52 2.60 2.64 2.71 2.66 2.47 2.54 2.30 2.09 1.93 1.82 1.91 2.01 1.99 1.96 1.98 1.93 2.20 2.07 2.03 2.14 2.21
0.08 0.09 0.15 0.24 0.34 0.65 0.95 1.29 1.21 0.88 0.82 0.75 0.64 0.56 0.51 0.42 0.41 0.46 0.49 0.57 0.79 1.07 1.33 1.47 1.62 1.85 2.10 2.30 2.28 2.24 2.09 2.07 2.12 2.10 1.95 1.86 1.91 1.81 1.90 1.89 1.93 1.92 1.96 2.02 2.14 2.00 1.96 2.15 2.11
0.10 0.11 0.14 0.18 0.36 0.65 0.91 1.25 1.37 1.10 0.99 0.80 0.73 0.77 0.54 0.40 0.38 0.46 0.46 0.52 0.65 0.77 1.02 1.22 1.42 1.69 1.83 1.94 1.95 1.88 1.88 1.83 1.85 1.80 1.76 1.75 1.83 1.88 1.92 1.92 2.01 1.93 1.89 1.93 1.97 1.77 1.78 2.02 2.07
0.13 0.13 0.14 0.16 0.21 0.45 0.84 1.11 1.01 0.93 0.83 0.69 0.68 0.66 0.58 0.52 0.41 0.38 0.43 0.48 0.60 0.76 0.97 1.23 1.44 1.57 1.64 1.65 1.69 1.76 1.73 1.72 1.75 1.69 1.63 1.69 1.86 1.89 1.85 1.82 1.83 1.84 1.81 1.85 1.88 1.68 1.82 1.98 2.03
0.14 0.14 0.15 0.20 0.20 0.23 0.48 0.84 0.71 0.66 0.69 0.67 0.64 0.64 0.63 0.55 0.51 0.50 0.57 0.61 0.68 0.82 0.96 1.26 1.53 1.58 1.62 1.69 1.83 1.94 1.99 2.01 1.96 1.76 1.65 1.71 1.82 1.87 1.89 1.88 1.84 1.74 1.76 1.94 2.00 1.89 1.97 2.07 2.06